Massena, NY

4:44 PM EDT on September 23, 2019 (GMT -0400)
Massena International-Richards

Weather History for KMSS - July, 2019

Change the Weather History Date:

Saturday, July 13, 2019

  Actual Average Record
Temperature  
Mean Temperature 73 °F 69 °F  
Max Temperature 83 °F 80 °F 93 °F (1995)
Min Temperature 62 °F 58 °F 44 °F (1971)
Degree Days  
Heating Degree Days 0 1  
Month to date heating degree days 0 13  
Since 1 June heating degree days 97 109  
Since 1 July heating degree days 0 13  
Cooling Degree Days 8 5  
Month to date cooling degree days 100 62  
Year to date cooling degree days 159 151  
Since 1 June cooling degree days 158 137  
Growing Degree Days 22 (Base 50)    
Moisture  
Dew Point 62 °F    
Average Humidity 69    
Maximum Humidity 93    
Minimum Humidity 45    
Precipitation  
Precipitation 0.00 in 0.11 in 1.48 in (1950)
Month to date precipitation 0.92 1.46  
Year to date precipitation 15.41 16.91  
Sea Level Pressure  
Sea Level Pressure 29.86 in    
Wind  
Wind Speed 10 mph (SW)    
Max Wind Speed 23 mph    
Max Gust Speed 31 mph    
Visibility 10 miles    
Events      
T = Trace of Precipitation, MM = Missing Value Source: NWS Daily Summary

Daily Weather History Graph

Daily Weather History Graph

Search for Another Location

Airport or City:

Astronomy

Jul. 13, 2019 Rise Set
Actual Time 5:25 AM EDT 8:44 PM EDT
Civil Twilight 4:49 AM EDT 9:20 PM EDT
Nautical Twilight 4:02 AM EDT 10:07 PM EDT
Astronomical Twilight 3:03 AM EDT 11:05 PM EDT
Moon 6:03 PM EDT (7/13) 2:46 AM EDT (7/13)
Length of Visible Light 16h 31m
Length of Day
15h 19m
Waxing Gibbous, 90% of the Moon is Illuminated
Jul 13
Waxing Gibbous
Jul 16
Full
Jul 24
Last Quarter
Jul 31
New
Aug 7
First Quarter

Hourly Weather History & Observations

Time (EDT) Temp. Heat Index Dew Point Humidity Pressure Visibility Wind Dir Wind Speed Gust Speed Precip Events Conditions
12:53 AM 66.0 °F - 62.1 °F 87% 29.85 in 10.0 mi SSW 6.9 mph - N/A   Clear
1:53 AM 64.0 °F - 61.0 °F 90% 29.84 in 10.0 mi SW 5.8 mph - N/A   Clear
2:53 AM 64.0 °F - 61.0 °F 90% 29.85 in 10.0 mi SSW 8.1 mph - N/A   Clear
3:53 AM 63.0 °F - 61.0 °F 93% 29.85 in 10.0 mi SSW 5.8 mph - N/A   Clear
4:53 AM 63.0 °F - 61.0 °F 93% 29.86 in 10.0 mi SSW 4.6 mph - N/A   Partly Cloudy
5:53 AM 64.0 °F - 62.1 °F 93% 29.86 in 10.0 mi SW 6.9 mph - N/A   Scattered Clouds
6:53 AM 66.0 °F - 63.0 °F 90% 29.88 in 10.0 mi SW 9.2 mph - N/A   Clear
7:24 AM 66.9 °F - 63.0 °F 87% 29.89 in 10.0 mi SW 12.7 mph - N/A   Partly Cloudy
7:53 AM 68.0 °F - 64.0 °F 87% 29.89 in 10.0 mi SSW 12.7 mph - N/A   Scattered Clouds
8:53 AM 71.1 °F - 63.0 °F 75% 29.89 in 10.0 mi SSW 12.7 mph - N/A   Clear
9:53 AM 73.9 °F - 63.0 °F 68% 29.90 in 10.0 mi WSW 10.4 mph - N/A   Clear
10:53 AM 75.9 °F - 63.0 °F 64% 29.88 in 10.0 mi SW 11.5 mph - N/A   Clear
11:53 AM 78.1 °F - 63.0 °F 60% 29.88 in 10.0 mi SW 15.0 mph - N/A   Clear
12:53 PM 81.0 °F 81.1 °F 57.9 °F 45% 29.87 in 10.0 mi SW 12.7 mph - N/A   Clear
1:53 PM 82.0 °F 82.1 °F 59.0 °F 45% 29.86 in 10.0 mi West 9.2 mph 18.4 mph N/A   Clear
2:53 PM 81.0 °F 81.7 °F 61.0 °F 50% 29.85 in 10.0 mi SW 12.7 mph - N/A   Partly Cloudy
3:53 PM 82.0 °F 83.1 °F 63.0 °F 52% 29.84 in 10.0 mi SSW 13.8 mph 23.0 mph N/A   Partly Cloudy
4:53 PM 80.1 °F 81.5 °F 63.0 °F 56% 29.83 in 10.0 mi SW 16.1 mph 26.5 mph N/A   Partly Cloudy
5:53 PM 77.0 °F - 62.1 °F 60% 29.83 in 10.0 mi SW 17.3 mph 31.1 mph N/A   Clear
6:53 PM 75.9 °F - 62.1 °F 62% 29.83 in 10.0 mi SW 11.5 mph - N/A   Clear
7:53 PM 73.9 °F - 62.1 °F 66% 29.83 in 10.0 mi SW 8.1 mph - N/A   Scattered Clouds
8:53 PM 73.0 °F - 63.0 °F 71% 29.85 in 10.0 mi SW 6.9 mph - N/A   Scattered Clouds
9:53 PM 73.0 °F - 60.1 °F 64% 29.88 in 10.0 mi North 9.2 mph - N/A   Mostly Cloudy
10:53 PM 68.0 °F - 61.0 °F 78% 29.85 in 10.0 mi Calm Calm - N/A   Partly Cloudy
11:53 PM 66.9 °F - 62.1 °F 84% 29.85 in 10.0 mi SSW 5.8 mph - N/A   Clear